GEFSCGP_500_meanwind_006.txt.gz
Wind_Speed
13 15 15 15 14 15 15 15 14 15 15 17 19 22 23 26 29 34 36 36 34 31 30 32 34 37 38 39 40 39 37 35 36 36 37 38 40 41 41 41 41 42 42 42
11 13 11 10 10 11 14 18 21 21 22 23 26 28 30 31 32 35 36 35 34 31 31 33 35 35 33 33 36 39 38 37 36 36 36 36 37 39 40 40 40 40 40 39
11 9 8 7 8 11 14 18 22 26 25 26 29 30 32 34 35 35 34 33 31 31 33 34 35 32 32 33 34 35 36 37 37 38 36 35 34 34 34 35 36 36 35 35
8 7 7 8 11 15 18 19 19 22 29 33 34 36 36 35 34 32 29 27 26 29 32 35 34 33 33 34 35 34 34 35 36 37 38 39 38 36 35 35 35 36 37 36
7 9 10 10 12 15 17 17 18 18 20 25 30 34 30 26 24 21 20 20 23 28 30 30 31 32 33 34 35 37 39 39 39 40 41 42 43 42 40 39 39 39 39 40
6 6 6 7 9 11 11 11 11 13 14 16 19 23 19 17 17 17 19 21 24 27 29 29 30 30 31 31 33 35 37 40 41 43 43 44 44 44 43 43 42 41 41 41
5 6 8 8 6 7 8 8 7 7 10 12 15 17 16 16 17 19 21 23 25 27 28 29 29 27 26 27 28 31 33 36 39 42 44 45 45 45 45 44 44 43 42 41
7 7 9 9 10 9 10 11 10 8 8 9 13 16 16 17 20 23 24 25 26 27 27 28 29 28 28 29 30 31 32 34 36 38 40 42 43 44 45 45 46 45 44 42
8 8 11 13 12 11 10 12 12 11 10 10 13 18 20 22 24 25 26 25 24 25 27 30 32 33 33 34 35 36 35 35 36 37 38 39 40 42 42 43 45 46 46 45
9 8 10 14 14 11 10 10 12 12 13 12 11 16 21 24 26 26 27 27 27 27 28 30 32 33 34 36 37 37 37 37 36 36 37 37 37 38 39 40 41 42 43 44
13 9 8 12 13 13 11 9 10 11 13 13 10 8 16 23 26 28 29 28 29 29 30 32 33 33 33 35 37 38 39 39 38 38 37 35 34 34 35 36 38 39 40 41
14 12 10 13 15 16 15 15 15 16 16 17 16 10 17 23 27 29 30 32 33 35 36 37 37 37 36 36 38 40 40 40 40 38 38 37 34 32 32 32 32 33 34 34
13 14 12 13 17 18 18 18 18 19 19 19 20 19 23 26 29 32 34 36 37 39 41 42 43 43 42 41 40 42 41 41 40 40 39 39 36 32 30 29 28 28 27 28
12 14 15 16 18 20 20 20 21 23 24 23 22 24 29 30 32 35 37 38 39 42 45 47 46 46 47 46 44 44 44 43 41 40 39 39 38 33 29 27 26 25 23 22
14 15 17 18 21 23 22 21 23 26 27 28 28 30 32 34 36 39 42 44 46 48 49 50 50 50 49 49 49 47 46 44 41 39 38 38 38 34 29 26 25 23 20 19
19 19 19 20 22 24 24 26 28 29 30 31 32 33 35 38 41 44 46 49 50 51 51 52 53 53 52 51 50 50 49 46 42 40 38 36 37 34 29 26 24 22 20 17
22 22 22 21 22 23 27 28 28 29 30 32 34 35 37 39 43 47 50 52 53 54 55 56 56 56 55 53 53 52 50 47 43 40 38 36 35 33 29 27 25 23 20 18
23 24 25 25 26 28 29 31 31 33 35 36 38 39 41 44 48 51 55 58 59 60 61 61 60 60 59 59 58 56 52 47 43 40 38 35 33 32 28 27 26 24 21 18
28 29 30 31 32 33 34 34 35 37 38 39 41 43 46 49 54 57 59 63 66 66 66 65 64 64 64 65 65 62 56 49 44 40 38 36 33 30 28 26 25 23 21 19
31 32 32 34 36 38 39 39 39 41 41 40 43 47 52 54 55 59 63 67 71 72 72 70 70 70 71 71 70 66 59 53 48 43 39 37 34 31 29 28 25 23 22 20
33 34 35 38 40 42 42 40 41 43 46 47 51 56 60 63 65 68 71 74 76 77 77 78 79 80 80 76 71 66 60 55 52 48 43 41 37 32 30 28 25 23 21 20
37 38 38 39 40 40 40 42 41 45 49 54 58 62 66 69 72 74 77 79 81 82 83 83 81 78 74 70 67 63 59 55 54 51 45 40 37 33 30 28 26 24 22 20
37 37 37 38 39 41 43 45 47 51 55 58 62 66 70 74 77 80 82 83 82 81 77 70 64 58 56 57 56 56 57 56 55 54 51 45 38 34 32 30 28 26 23 20
33 33 35 37 40 43 46 49 53 56 60 63 67 72 76 79 82 84 84 81 75 66 55 47 45 46 47 48 47 45 45 51 56 56 54 48 42 37 35 33 31 27 24 21
31 33 36 40 44 48 51 55 59 63 66 69 71 74 79 83 83 80 73 65 54 43 41 43 46 47 48 46 42 41 40 42 50 56 56 51 44 39 37 36 33 30 26 23
34 37 42 46 50 54 59 63 67 71 73 76 77 77 76 72 67 61 54 47 42 42 44 46 47 48 48 47 45 44 42 41 43 52 56 52 46 41 39 37 34 32 28 25

GEFSCGP_500_meanwind_012.txt.gz
Wind_Speed
16 17 19 21 22 25 29 31 34 36 37 37 38 37 36 34 33 32 31 30 28 27 29 32 33 32 31 30 29 28 28 28 28 28 28 28 29 30 32 33 34 35 36 37
10 12 14 16 19 22 26 28 30 32 32 32 33 33 33 33 31 30 30 30 30 31 33 35 35 32 31 30 29 29 30 30 29 29 30 31 32 33 34 35 36 36 36 37
6 8 10 13 16 19 23 26 28 29 29 29 31 31 31 31 31 31 31 32 33 35 36 35 33 30 29 30 31 32 31 30 30 30 30 30 31 32 34 36 37 38 39 39
7 9 12 14 16 17 19 21 23 25 26 28 30 32 32 33 34 35 36 36 37 37 35 32 29 28 29 31 31 31 29 28 28 28 27 26 27 29 31 33 35 36 38 40
8 10 12 13 15 17 18 19 20 20 22 25 29 33 33 33 36 39 39 38 36 34 31 28 26 27 29 30 29 28 26 25 23 22 22 22 24 26 29 32 34 35 36 38
4 5 6 8 10 11 12 14 15 16 18 20 23 25 25 26 28 31 31 30 28 26 25 25 26 27 28 27 26 25 24 22 20 20 21 23 25 26 29 31 33 35 35 36
3 4 5 7 9 10 11 13 15 16 17 17 19 20 19 19 20 22 23 23 23 24 24 25 25 25 26 26 25 24 22 21 22 23 25 27 28 30 31 32 34 35 36 36
3 5 7 9 10 10 12 14 16 17 17 16 19 19 18 19 19 21 22 23 23 24 23 22 22 23 25 25 24 23 23 24 26 28 30 31 32 34 35 35 36 37 37 37
6 6 10 12 11 11 12 13 15 18 18 18 18 19 19 20 20 21 23 23 22 20 19 19 21 23 25 26 26 26 27 29 31 33 34 35 36 37 37 37 37 37 38 39
8 8 10 12 12 11 11 12 14 17 20 19 17 18 20 20 21 22 23 23 23 22 22 23 25 27 28 30 31 32 33 34 35 36 36 38 39 39 39 39 38 38 38 39
10 11 12 15 15 15 15 16 17 19 22 24 22 19 20 22 24 26 27 28 28 29 29 30 32 33 35 36 37 38 38 37 37 37 37 39 40 41 41 40 39 38 38 39
13 13 14 17 18 18 19 21 23 25 25 26 27 26 25 26 28 30 32 33 34 35 36 37 39 40 41 42 43 43 44 43 42 41 40 40 42 42 41 40 39 38 38 38
13 14 14 15 19 21 22 24 26 28 28 28 29 31 32 33 33 34 36 37 39 40 42 43 44 46 47 47 48 48 49 49 48 46 45 43 43 42 41 40 39 38 38 38
14 14 17 20 22 23 23 23 26 30 31 31 31 32 35 36 37 38 40 41 43 44 46 48 49 51 51 51 52 52 52 53 53 52 50 47 44 43 43 42 41 39 38 38
17 17 18 20 23 24 24 24 24 26 29 32 32 32 34 36 38 41 43 45 47 49 51 53 54 56 57 57 57 57 57 58 59 58 56 51 48 46 45 45 44 42 40 39
21 21 21 22 24 25 26 27 28 29 30 33 34 36 38 40 42 44 47 50 52 54 56 58 60 62 63 62 60 59 59 60 60 60 58 55 54 52 50 49 47 46 43 40
23 25 26 25 25 26 28 29 31 32 34 36 38 39 40 42 43 47 50 53 55 57 59 62 63 63 64 64 63 63 62 62 63 64 64 63 61 59 57 54 51 47 45 42
27 28 29 29 29 32 33 34 35 37 39 39 39 40 42 46 48 50 53 55 56 57 60 63 65 66 68 70 72 73 71 70 72 73 72 71 69 65 62 58 53 49 46 43
28 29 30 32 32 34 36 38 40 41 42 43 43 46 49 53 55 56 61 66 70 73 75 77 79 81 82 84 85 86 84 82 81 79 77 75 71 67 63 59 55 51 48 45
29 30 32 33 34 35 37 39 40 44 46 47 50 53 57 60 64 65 68 72 75 78 81 83 85 86 87 88 90 89 88 86 83 79 75 70 65 60 57 55 53 51 49 46
26 28 29 31 33 35 36 39 43 46 51 55 59 63 66 70 73 75 77 79 81 82 84 85 85 85 84 83 83 83 81 78 74 68 61 54 48 45 44 45 47 48 47 46
28 29 30 31 33 36 39 43 47 53 58 63 67 72 76 79 81 83 84 83 82 79 76 73 71 68 64 62 61 60 58 54 50 44 38 35 32 31 34 36 40 44 45 44
30 31 32 34 37 42 47 51 56 61 67 71 76 79 82 84 84 82 78 73 68 63 58 54 51 47 43 42 43 43 40 37 33 30 28 27 28 29 30 33 37 41 43 41
30 33 36 40 44 48 53 58 63 68 74 78 81 82 82 79 74 67 62 57 53 48 44 41 40 38 36 35 36 36 35 33 30 29 29 30 31 31 31 32 34 40 44 40
35 39 42 46 50 53 58 64 69 75 79 81 80 77 72 65 60 57 53 48 44 41 39 40 41 41 40 40 38 36 37 37 36 36 34 34 34 33 32 31 32 38 45 43
38 41 46 50 54 59 64 69 75 79 80 78 74 65 57 53 51 48 46 45 44 44 45 46 47 48 48 47 45 43 41 41 41 40 39 37 35 34 33 30 31 37 44 44

GEFSCGP_500_meanwind_018.txt.gz
Wind_Speed
11 12 13 17 19 24 26 29 31 37 38 38 40 41 42 42 42 41 39 37 35 35 36 37 37 36 38 38 38 37 36 34 31 29 27 24 22 21 20 19 17 17 17 18
5 7 11 13 15 17 20 22 24 30 34 36 37 38 38 38 36 34 33 32 33 33 34 34 36 37 39 39 39 37 35 31 29 27 25 22 19 17 15 13 13 14 14 16
2 6 6 8 9 9 11 14 17 21 24 25 28 27 28 30 29 27 27 28 29 31 33 35 38 40 41 41 40 37 34 31 29 27 23 20 16 14 13 13 14 15 16 17
5 6 7 7 9 9 10 13 14 16 17 17 21 20 21 25 25 26 27 28 30 32 36 38 40 41 41 39 38 36 33 31 30 27 23 20 18 16 16 17 18 19 20 20
8 8 8 9 11 12 12 13 13 14 15 15 17 17 15 22 22 25 27 29 32 34 37 39 39 39 38 37 36 35 34 33 30 27 25 23 21 21 21 22 23 23 23 23
6 7 7 8 10 11 11 11 11 12 12 12 15 14 13 18 19 20 22 24 26 29 32 34 34 34 34 35 35 36 35 34 31 29 28 26 26 27 27 28 28 27 26 25
5 6 8 9 9 10 11 11 11 10 10 12 17 14 15 19 19 19 20 22 23 25 27 30 31 32 33 34 36 37 36 35 33 32 31 30 30 31 32 31 30 29 27 26
5 7 11 10 9 9 10 10 10 11 11 12 15 14 17 20 20 20 21 23 25 26 28 30 33 34 34 35 37 37 37 36 35 34 34 34 34 35 34 33 31 30 28 27
7 8 12 10 8 8 9 9 11 13 13 13 12 14 19 22 22 22 23 24 27 28 30 32 34 36 37 38 39 39 39 39 39 38 38 38 37 36 35 34 33 32 30 29
7 7 10 10 9 8 10 11 13 14 15 14 15 17 19 20 22 24 26 28 30 33 34 36 38 39 40 41 42 43 44 45 45 44 43 42 41 39 39 38 37 35 33 32
5 6 8 11 12 14 14 15 15 17 19 19 19 22 23 24 26 28 30 32 34 37 39 41 43 44 44 45 46 47 49 49 50 50 49 48 46 45 43 42 41 39 37 34
7 9 10 13 15 16 17 19 20 21 22 24 25 30 26 28 30 32 33 35 38 40 42 44 46 48 48 49 50 51 52 53 54 55 55 54 52 50 49 47 46 43 40 37
10 13 15 16 20 21 21 22 22 24 25 27 29 34 32 34 35 37 38 40 42 43 45 47 49 50 52 53 54 55 56 58 59 60 61 61 59 57 55 53 50 48 45 41
14 16 18 18 19 23 24 25 25 26 28 30 32 37 37 38 40 41 42 43 44 46 48 49 51 53 55 57 58 60 61 62 63 65 66 66 66 64 62 59 56 54 50 45
17 19 20 21 22 24 25 26 28 30 31 32 34 37 39 41 42 42 43 45 47 49 52 54 56 58 60 62 64 66 67 68 70 71 72 73 72 72 71 68 64 60 55 50
19 20 20 22 23 26 27 28 30 30 32 34 36 39 41 44 46 48 50 53 56 58 60 63 65 67 68 70 72 74 75 75 75 75 76 76 74 73 73 72 68 63 58 52
20 21 21 22 25 27 28 28 30 32 34 36 40 44 48 50 53 56 59 63 66 68 71 73 75 76 77 79 80 82 83 84 84 83 83 82 80 77 74 71 67 64 60 56
21 21 22 22 25 26 28 30 32 35 38 42 46 50 53 57 61 64 69 73 76 78 80 80 79 78 76 75 75 76 77 80 83 86 88 89 89 86 84 82 79 75 71 66
22 22 22 23 26 31 30 34 37 40 44 47 51 56 60 64 68 72 76 79 80 78 75 70 66 62 59 56 56 56 57 60 64 68 71 74 77 78 79 79 79 77 75 71
24 24 25 27 29 32 37 39 42 46 51 55 59 64 68 72 76 78 78 76 69 61 54 49 45 43 43 43 44 45 44 44 45 47 50 52 53 54 57 60 63 65 66 65
25 26 27 29 32 35 38 42 45 50 55 59 64 69 74 78 79 76 67 56 48 42 39 39 40 41 42 43 44 43 42 40 38 38 38 38 38 38 40 42 45 49 53 55
27 29 30 32 35 40 43 47 50 55 60 65 69 74 77 76 69 58 47 41 38 39 41 43 44 45 46 47 47 46 45 44 41 39 37 34 32 31 30 30 32 35 39 44
29 31 33 35 38 42 47 51 55 59 64 68 73 76 75 66 52 42 38 39 41 43 45 47 48 48 48 48 49 48 46 46 43 41 38 36 33 30 28 27 28 29 31 35
32 34 36 38 41 44 49 53 57 62 68 73 76 73 64 51 41 38 40 43 45 46 48 49 49 49 49 49 49 49 48 47 45 43 40 37 34 30 27 25 24 23 24 25
36 37 39 41 44 48 52 57 62 67 72 75 73 63 51 42 39 41 44 47 48 49 50 50 50 49 48 48 48 48 48 47 45 42 40 38 34 30 26 24 23 21 21 20
37 39 42 44 48 52 56 60 65 71 75 73 65 51 42 41 42 45 48 49 50 50 50 50 48 47 46 46 46 47 46 44 41 39 38 36 34 31 28 25 24 23 22 21

GEFSCGP_500_meanwind_024.txt.gz
Wind_Speed
1 0 1 7 12 16 15 15 13 12 17 25 28 26 26 28 32 36 38 40 43 44 46 49 49 49 47 46 43 40 38 37 37 37 37 37 36 33 31 30 28 27 25 23
4 6 5 9 9 8 8 10 13 16 20 24 28 28 26 27 29 34 38 39 41 43 45 45 46 48 45 43 37 34 35 36 37 38 38 37 35 32 30 28 26 25 23 21
8 6 7 6 5 6 8 10 13 17 20 22 22 21 18 17 22 28 32 34 37 40 41 41 41 39 36 34 32 31 33 36 37 38 37 35 33 31 30 27 25 24 22 20
4 7 10 6 8 8 10 13 18 19 19 18 16 16 14 16 21 26 29 31 34 37 40 40 38 36 29 28 29 32 34 35 36 37 37 34 32 31 29 27 26 24 23 23
4 8 8 7 8 10 11 13 13 12 12 12 12 12 15 18 21 26 29 31 33 37 38 37 39 39 35 32 30 33 34 35 35 35 35 33 33 31 29 27 26 26 26 26
3 7 7 7 8 10 10 8 6 11 15 19 19 13 15 21 24 28 31 33 35 36 37 38 38 38 38 39 37 35 35 34 34 34 35 34 33 31 29 28 28 28 29 30
2 4 6 9 10 10 9 9 10 14 21 25 14 7 18 23 24 26 29 31 33 35 36 37 38 38 39 39 40 40 37 36 35 36 37 37 35 32 31 30 30 30 32 33
5 5 5 11 13 12 10 8 10 15 16 18 19 19 24 27 28 28 29 31 35 36 37 39 40 41 42 42 43 42 42 42 41 41 42 41 40 38 36 35 33 34 35 36
7 6 8 13 14 12 12 11 11 15 14 13 16 28 29 28 31 30 30 35 39 40 41 43 45 46 47 47 48 48 48 48 48 48 47 47 46 45 43 42 41 39 39 39
8 9 7 9 11 14 16 17 16 16 17 17 16 29 32 33 33 36 39 41 42 43 44 46 48 50 51 52 53 54 54 54 54 55 55 54 54 53 52 50 49 48 46 44
8 8 7 9 11 12 16 17 18 20 20 21 21 29 32 35 37 40 41 43 45 46 48 50 52 54 55 57 58 59 60 60 60 60 60 60 60 60 59 58 57 56 54 51
10 11 10 10 12 14 17 21 22 23 23 23 25 33 33 35 39 41 43 46 48 50 52 54 56 57 59 60 61 62 63 64 64 65 65 65 65 64 64 64 63 62 60 58
11 12 11 10 13 16 19 21 24 26 27 28 30 35 36 37 40 43 46 49 52 54 57 59 61 62 64 65 66 67 68 68 69 69 68 68 68 68 68 67 67 66 65 64
12 13 13 12 12 16 19 21 24 26 28 30 32 38 42 43 44 48 51 55 58 61 64 66 68 69 71 72 73 74 75 75 75 75 75 74 74 74 73 72 71 70 69 67
14 15 15 15 14 15 18 20 22 26 30 34 37 41 46 49 51 54 57 60 63 66 69 71 73 74 76 77 76 75 73 72 72 72 73 74 75 77 78 78 78 77 75 73
17 16 16 16 16 17 20 21 25 30 35 39 42 45 49 53 56 59 62 65 68 71 73 75 75 74 71 67 62 57 55 53 51 51 51 53 56 60 65 71 76 78 80 80
18 19 19 18 18 20 24 27 31 35 39 44 46 49 52 55 59 62 65 68 72 73 73 69 62 55 49 46 44 43 43 42 42 41 41 41 41 42 43 47 53 60 67 73
18 19 20 21 22 23 27 29 34 38 42 46 48 51 55 58 62 65 68 71 71 67 59 51 46 43 43 43 43 44 44 44 44 43 42 42 41 40 39 39 40 43 48 54
20 21 22 23 23 29 32 34 38 42 45 50 52 56 59 63 66 67 67 65 59 52 47 45 45 45 45 45 46 47 48 47 47 46 46 45 43 42 41 39 37 37 38 40
24 24 24 26 29 32 35 40 43 47 49 54 57 60 63 66 69 66 60 54 49 47 47 48 48 48 48 49 50 51 50 50 49 48 47 45 45 44 43 41 40 39 39 37
22 24 26 29 31 37 39 43 45 48 52 54 57 61 65 68 66 61 54 49 47 48 49 50 50 51 52 53 53 53 52 51 50 49 48 46 45 43 42 40 39 38 37 36
24 27 29 32 35 39 42 45 48 52 55 58 61 65 67 65 59 54 50 49 49 50 50 51 52 53 54 54 54 53 52 50 49 48 46 45 43 42 41 39 37 36 35 33
26 28 31 34 36 40 44 48 51 55 58 60 64 66 67 62 55 50 49 49 50 51 52 54 55 55 55 55 54 53 51 50 48 47 44 42 41 40 39 37 35 33 32 31
31 31 33 35 39 42 47 50 53 56 59 62 65 67 64 57 52 50 48 49 50 52 54 55 56 56 55 54 53 52 51 49 46 43 41 41 40 38 36 33 32 31 30 29
29 32 35 39 42 44 47 50 54 56 59 63 65 65 60 54 51 49 49 50 52 55 56 57 57 57 56 54 52 50 47 44 42 40 37 37 35 33 31 29 29 28 27 26
32 35 38 41 44 46 48 52 55 57 60 63 65 63 56 51 49 48 50 52 55 57 58 58 57 56 55 52 48 45 41 38 36 34 33 31 30 28 27 26 24 24 23 22

GEFSCGP_500_meanwind_030.txt.gz
Wind_Speed
13 12 11 11 11 11 12 12 12 12 12 13 16 20 23 27 29 32 34 37 40 42 43 42 42 41 43 45 45 44 43 39 27 25 26 28 28 26 24 24 24 24 24 23
9 6 6 5 6 9 11 15 18 19 19 19 22 25 27 29 31 33 36 37 38 39 40 39 39 40 42 44 46 45 41 31 21 21 23 25 24 23 24 23 23 23 23 23
4 3 4 5 6 9 11 16 19 22 24 25 26 28 30 31 32 32 33 33 33 33 35 37 39 40 42 42 42 40 37 31 27 24 21 22 23 22 23 23 22 22 22 23
6 5 4 4 5 7 9 12 15 18 21 24 26 30 33 34 34 33 31 31 31 32 34 36 38 40 41 42 41 40 36 31 29 26 22 21 21 22 22 21 21 22 23 23
6 5 3 0 2 5 7 9 10 12 14 16 18 23 25 28 30 29 29 29 30 31 34 36 39 40 42 43 43 41 37 33 30 28 26 24 23 23 24 24 23 23 23 24
5 4 1 2 4 7 9 9 9 10 11 13 14 17 20 22 23 24 26 28 30 33 36 38 41 43 44 45 45 43 41 39 36 34 32 31 30 30 30 30 29 27 26 27
3 2 1 2 4 7 9 10 10 10 12 14 16 18 20 22 20 21 22 23 27 31 35 38 42 44 47 48 48 47 46 44 43 42 40 39 38 37 36 36 36 35 33 31
7 3 2 4 6 8 10 13 14 15 17 18 20 22 22 24 24 26 28 30 32 36 39 43 46 48 50 50 51 50 50 49 48 47 47 46 46 45 43 43 42 42 41 39
11 8 5 6 8 11 14 15 16 18 19 21 23 23 24 26 28 31 33 36 39 42 45 48 51 53 54 55 55 55 54 53 52 52 52 52 52 51 50 49 48 48 48 47
12 10 8 8 10 13 15 18 19 19 22 24 26 27 28 30 32 34 37 40 43 46 49 52 55 57 59 61 61 61 61 59 58 57 56 56 57 57 56 55 54 54 53 53
11 9 10 12 14 14 16 18 20 22 23 25 28 30 32 34 36 39 42 44 46 49 52 54 57 60 62 65 68 69 69 68 67 65 63 62 61 61 61 61 60 59 58 58
10 11 13 14 15 16 18 20 21 21 23 25 29 33 35 38 41 43 46 48 50 53 55 57 60 62 65 68 70 72 72 71 69 66 63 60 58 57 58 60 62 64 63 63
11 11 12 13 15 17 19 19 20 21 23 26 31 35 38 41 43 46 48 51 53 55 58 60 63 65 67 68 68 67 65 64 61 58 55 52 49 48 48 50 54 59 63 66
12 13 12 12 13 15 16 17 19 21 24 29 32 36 38 41 44 47 50 53 55 58 61 64 66 65 63 61 59 58 57 56 55 53 51 48 45 43 41 41 42 46 52 59
13 12 13 14 15 16 16 17 20 23 27 30 33 36 40 42 46 49 52 55 58 61 63 63 61 58 56 55 54 54 54 54 53 53 51 49 47 44 41 39 39 39 41 45
12 12 13 15 17 17 16 19 23 26 28 30 33 37 40 44 47 50 53 57 59 60 60 58 56 54 53 53 53 53 53 53 53 53 52 51 50 47 45 43 42 41 40 39
11 12 13 16 18 19 19 22 26 29 31 34 38 41 44 47 49 53 57 60 61 60 57 54 53 52 52 52 53 54 54 54 54 54 53 52 52 50 48 47 45 42 41 39
12 14 17 20 22 22 24 27 30 34 36 38 41 45 48 51 53 55 58 60 58 55 53 51 51 52 53 54 56 56 57 57 56 55 55 54 53 51 50 49 48 46 44 42
17 19 23 26 27 28 29 31 34 37 39 42 44 47 49 52 52 53 57 57 54 52 51 51 53 55 56 58 59 59 59 58 57 55 54 53 52 50 49 48 46 45 44 43
20 22 24 27 28 30 32 34 37 39 41 44 46 49 51 55 56 57 57 55 51 50 51 52 55 57 58 60 61 61 59 58 56 54 52 51 51 49 47 45 44 42 42 41
19 21 24 26 28 31 34 36 38 39 43 45 49 52 56 57 59 59 56 51 49 49 51 53 56 58 60 61 61 60 58 56 54 52 49 48 48 46 45 43 41 39 39 38
20 23 25 28 30 32 35 37 39 43 45 48 51 54 55 56 58 57 53 50 48 49 52 55 57 59 60 61 60 58 56 52 48 45 43 42 41 40 40 38 37 37 36 35
21 23 26 28 30 33 35 39 43 45 47 49 51 53 55 56 57 55 51 48 48 50 53 56 59 60 60 59 58 56 52 46 42 38 35 33 31 31 32 32 32 32 32 32
21 22 24 27 29 33 36 39 42 44 46 48 51 53 54 55 56 54 50 47 48 51 54 57 59 60 58 56 55 53 48 43 38 32 27 24 22 21 22 24 26 26 26 27
21 22 24 26 29 32 35 37 40 43 45 47 49 52 54 55 55 53 49 47 47 51 54 57 59 59 57 55 53 50 45 40 34 27 21 17 14 13 13 15 17 19 20 22
22 24 26 28 30 32 35 37 40 43 46 48 50 51 53 55 55 53 48 46 47 50 54 56 58 58 56 54 52 49 46 40 33 26 20 14 8 5 6 8 11 13 15 17

GEFSCGP_500_meanwind_036.txt.gz
Wind_Speed
13 14 16 16 16 17 18 18 19 21 21 21 20 19 19 19 21 23 25 28 30 33 35 37 39 39 40 40 40 39 39 38 38 39 39 38 36 33 26 25 29 30 31 31
11 11 13 14 14 14 15 17 18 19 20 21 21 20 21 22 24 26 29 31 34 37 39 41 41 40 40 41 40 40 39 40 40 40 39 38 36 33 26 23 24 25 29 30
8 10 10 11 11 12 13 14 16 17 19 19 20 21 22 24 26 28 30 32 35 37 39 39 38 39 40 40 41 41 41 42 42 41 40 38 35 32 28 26 25 24 25 26
4 5 7 8 9 10 9 10 12 13 15 17 18 19 20 23 25 27 29 31 32 32 33 34 36 38 39 40 41 43 43 44 43 42 41 39 37 34 31 29 28 27 27 28
2 4 5 6 7 7 6 7 8 9 11 13 15 16 18 21 22 24 26 27 27 29 30 31 33 35 37 39 41 43 44 45 45 45 44 42 39 37 35 33 32 30 30 30
1 2 4 5 6 5 6 6 7 9 10 12 14 16 17 20 22 23 25 26 28 29 31 33 35 36 38 40 42 44 45 46 46 46 46 45 43 41 40 39 38 37 36 35
0 2 4 4 5 7 8 8 9 10 10 12 14 16 18 21 23 25 26 28 30 31 33 35 37 39 40 41 42 44 44 45 46 47 47 47 47 46 45 44 43 43 42 41
2 2 4 6 7 8 10 11 13 14 15 16 17 19 21 23 25 27 29 31 33 34 36 38 39 39 40 41 43 44 46 47 48 49 50 50 50 50 50 49 49 48 48 47
1 3 5 7 8 10 11 13 15 17 18 20 20 21 23 26 28 30 33 35 36 38 39 40 41 42 43 44 45 47 48 48 49 49 49 49 49 49 49 49 51 52 53 53
4 5 7 9 11 11 12 14 16 18 21 22 22 23 25 27 30 33 35 37 39 41 43 44 45 47 48 49 50 50 49 48 47 46 45 44 44 45 46 46 48 50 53 55
7 9 10 11 11 12 13 15 17 19 20 23 25 26 28 30 33 35 38 40 42 44 46 48 49 51 53 53 53 52 51 49 46 45 44 43 43 44 44 45 46 47 50 53
10 12 13 12 12 12 14 16 17 19 21 23 26 28 30 33 35 37 39 42 44 47 49 50 52 54 55 54 53 52 51 49 48 47 48 48 48 48 47 46 46 47 49 51
12 13 13 13 13 14 15 16 17 19 21 24 27 29 31 34 36 39 41 43 46 47 49 51 53 53 52 51 50 50 50 51 52 53 54 54 53 52 51 50 48 47 47 49
13 12 11 11 11 12 14 15 18 20 22 25 27 29 32 34 36 39 41 44 45 47 50 52 52 51 50 49 49 50 53 55 57 58 58 58 57 56 56 55 53 51 50 49
14 12 11 11 11 13 15 17 20 22 24 26 28 30 32 35 37 40 43 44 46 48 50 50 50 48 47 48 50 53 56 58 60 60 61 62 62 62 61 59 56 54 53 52
14 14 13 12 14 16 18 20 22 23 25 26 29 31 34 37 40 43 45 46 48 49 50 49 48 47 47 50 52 56 58 60 61 62 63 63 63 62 60 58 55 53 52 52
14 14 14 14 15 17 19 21 23 24 26 29 32 34 36 38 42 45 46 47 49 50 50 49 47 47 49 52 55 58 60 62 63 64 63 62 61 59 55 52 50 49 48 49
12 13 14 15 17 18 21 22 24 25 28 30 33 36 38 40 42 46 49 49 50 51 50 48 47 48 51 54 57 59 61 62 63 63 61 59 57 54 50 46 45 43 43 44
14 15 17 18 19 20 23 24 26 28 29 32 35 38 40 42 42 45 47 48 49 51 50 48 48 50 52 55 57 59 60 62 62 60 58 56 53 48 43 40 38 38 38 39
15 17 19 20 22 24 25 26 28 30 32 34 37 40 43 45 46 47 48 49 50 51 50 49 50 51 53 55 57 58 60 60 59 57 54 51 47 41 37 33 30 31 33 35
17 18 20 21 22 23 25 27 30 32 34 36 38 41 44 47 50 51 51 52 52 52 50 49 50 51 53 54 56 57 58 57 56 53 50 47 42 36 30 25 22 22 25 29
19 20 21 21 22 24 25 28 30 32 34 36 38 41 44 47 49 51 51 52 52 51 49 49 49 50 52 53 55 56 55 55 53 50 47 43 38 31 25 20 16 15 18 22
20 20 21 22 23 24 26 28 30 32 34 36 39 41 44 47 49 51 52 52 52 51 49 48 48 49 50 52 53 54 53 52 50 48 45 40 35 29 24 19 13 10 13 17
20 20 21 22 23 25 27 29 30 32 34 37 40 42 45 47 50 52 52 52 52 51 49 47 47 47 48 50 52 52 52 51 48 45 42 39 35 30 25 19 12 6 7 12
20 20 21 22 24 26 28 30 31 33 35 37 40 43 45 48 50 52 52 51 51 51 48 46 46 47 47 48 50 50 50 49 46 42 40 38 34 31 27 21 15 8 3 5
21 21 22 24 26 27 29 31 32 33 35 38 40 43 46 48 49 51 52 51 51 51 48 46 45 45 45 47 48 49 48 47 44 40 37 36 34 31 27 23 18 13 7 1

GEFSCGP_500_meanwind_042.txt.gz
Wind_Speed
8 7 6 8 9 10 10 10 13 16 16 17 19 20 20 20 20 21 21 22 23 25 27 29 32 34 36 38 39 39 40 40 39 40 40 39 38 38 38 37 36 35 34 34
2 5 7 7 6 7 7 8 11 13 13 14 15 15 16 17 18 19 21 22 24 26 28 30 32 34 36 37 37 37 37 38 39 40 41 41 41 41 40 39 38 37 36 34
4 8 7 6 6 6 7 7 10 11 10 10 11 12 13 14 16 17 19 21 24 26 28 29 30 31 32 34 35 36 38 39 40 41 41 42 42 43 43 42 41 40 38 36
5 7 6 6 7 6 7 8 8 9 8 10 9 12 13 14 16 18 20 22 24 26 27 29 30 32 34 35 37 38 40 42 43 44 44 44 45 45 45 44 43 42 40 38
5 6 6 7 7 6 7 7 8 8 9 10 10 10 17 16 18 20 22 23 25 27 29 31 32 34 36 37 39 41 42 44 45 46 46 47 47 47 47 47 46 44 43 41
4 5 5 6 6 7 7 7 8 9 10 10 13 12 18 18 20 22 24 25 27 28 30 32 33 35 37 38 40 42 43 44 46 47 48 48 49 49 49 49 49 47 46 44
4 5 4 4 6 6 6 7 9 10 10 12 17 15 18 19 20 22 25 26 27 29 31 33 34 36 37 39 40 42 43 44 46 46 47 47 47 47 47 47 48 48 47 47
4 7 6 5 6 7 8 8 9 10 10 14 18 16 17 18 20 22 24 26 28 30 32 34 36 37 38 39 40 42 42 43 43 44 45 45 45 44 44 44 44 45 46 47
4 6 6 6 7 8 9 9 11 11 12 12 15 17 16 18 21 23 25 27 29 31 34 36 37 38 39 40 41 41 41 41 41 42 42 42 41 41 41 42 42 43 44 46
5 6 7 7 7 7 8 9 9 9 10 10 13 18 19 19 22 24 26 28 31 33 36 37 38 39 40 41 41 41 41 40 40 40 39 40 40 41 42 43 44 46 46 47
5 6 7 7 6 7 7 8 8 9 9 10 12 18 19 21 23 26 28 31 33 36 38 39 40 41 41 41 41 41 41 41 40 40 40 40 42 44 45 46 48 49 50 50
5 6 7 7 7 7 7 8 8 10 12 13 15 19 19 22 25 27 30 33 35 38 39 41 42 43 42 42 42 42 42 42 41 42 42 43 45 47 48 50 51 52 53 54
6 6 7 7 8 8 9 9 10 11 13 14 16 20 21 23 26 29 32 35 37 39 41 42 43 44 43 43 43 43 43 43 43 43 45 46 48 50 52 53 55 56 57 57
7 6 5 5 8 11 11 11 12 13 15 17 18 20 24 26 29 32 34 37 39 41 42 43 44 45 44 43 43 43 43 43 44 45 47 49 50 52 53 55 56 57 57 57
6 6 7 8 10 12 13 13 14 15 16 18 20 22 25 28 31 34 36 38 41 42 44 45 46 45 44 44 44 43 43 43 44 46 48 49 51 53 54 55 55 56 56 56
8 8 10 11 13 15 15 15 16 17 18 19 22 24 27 29 32 35 37 40 42 44 45 46 46 45 44 44 43 42 43 43 45 46 48 50 52 52 53 54 54 52 51 50
10 12 13 14 16 16 17 16 17 19 20 22 24 26 29 30 34 37 39 41 44 45 46 46 46 46 45 44 43 43 43 44 46 48 50 51 52 51 52 51 50 48 46 45
13 14 15 16 17 18 17 17 18 19 21 23 25 28 29 31 35 37 40 42 44 46 47 47 47 46 45 44 43 43 44 45 46 48 50 51 50 49 49 49 47 44 41 38
15 16 17 18 19 18 17 17 18 20 21 24 26 28 30 32 36 39 41 44 47 48 49 49 48 47 46 44 44 44 44 45 46 48 49 50 49 48 47 46 43 39 36 32
16 17 18 19 19 18 19 18 20 22 23 25 27 29 31 33 36 39 43 46 48 50 50 50 49 48 46 44 44 44 44 45 46 48 49 49 47 46 45 43 40 37 32 28
17 17 17 19 19 20 20 21 22 24 26 27 29 31 33 35 38 41 44 47 49 50 50 50 49 48 47 44 43 44 44 45 46 47 47 47 45 44 44 41 38 35 29 24
18 18 18 18 19 21 21 22 23 24 26 28 30 32 34 37 39 42 45 48 50 50 50 49 48 48 46 44 43 44 44 45 46 46 46 45 43 43 41 40 37 33 28 22
18 19 20 20 21 22 22 23 24 25 27 28 30 32 35 38 41 44 46 49 50 51 50 49 48 47 46 44 43 43 44 44 45 45 44 43 42 41 39 37 35 32 26 20
20 19 20 21 21 22 23 24 25 26 27 29 31 33 36 39 42 45 47 49 50 50 49 48 47 46 45 43 43 42 43 43 44 44 43 42 40 39 37 35 33 30 26 20
21 20 20 21 21 22 23 24 25 26 28 30 32 34 37 40 44 46 49 50 50 50 49 48 47 46 44 42 42 41 41 42 43 43 42 41 39 38 35 33 31 28 25 20
22 21 21 21 22 22 23 24 26 27 29 31 33 36 39 42 45 48 49 49 50 50 48 48 47 45 43 42 41 40 40 41 42 42 41 40 38 36 34 32 29 26 24 20

GEFSCGP_500_meanwind_048.txt.gz
Wind_Speed
2 3 4 4 6 7 8 10 11 11 11 14 18 22 21 19 19 19 19 20 21 22 23 25 26 28 30 33 35 36 38 40 42 43 43 44 43 43 44 43 43 42 42 42
5 10 7 3 6 8 9 12 14 17 17 16 18 18 15 14 14 16 17 18 19 20 22 25 27 29 31 33 35 36 37 39 41 42 42 43 43 44 45 45 44 43 43 43
10 8 6 4 6 8 11 14 15 15 16 14 14 15 14 11 11 13 16 18 19 21 23 25 26 28 30 32 33 35 36 38 40 41 42 42 43 43 44 44 44 43 43 43
9 7 6 7 9 8 12 13 13 13 14 15 16 19 17 13 12 13 15 18 20 22 23 25 27 28 30 32 33 35 36 38 39 41 42 43 43 44 44 44 44 43 43 43
5 6 6 7 9 8 10 11 12 14 16 20 21 21 15 11 14 15 18 21 22 23 24 25 27 28 30 32 34 35 36 38 39 40 42 43 44 44 44 44 44 44 44 44
1 3 6 6 6 7 9 10 13 18 19 19 17 14 13 13 19 20 22 23 23 24 25 26 28 30 31 33 35 36 37 38 39 40 41 42 43 43 43 44 44 44 44 44
0 3 3 7 6 7 7 10 16 21 21 18 14 9 8 18 22 24 24 25 25 26 27 28 30 31 33 35 36 37 38 39 40 41 42 42 43 43 42 42 42 43 43 43
8 7 7 9 9 8 7 9 14 17 20 20 15 9 12 19 21 22 23 24 25 27 29 30 32 34 35 36 37 38 39 39 40 41 41 42 42 42 42 43 43 43 43 43
8 7 10 11 9 8 8 8 11 12 12 14 16 16 17 19 20 21 23 24 26 28 30 32 34 36 37 38 39 40 41 41 41 41 41 41 42 42 42 43 43 44 44 44
8 7 6 10 10 10 10 9 8 6 8 8 13 18 20 21 22 22 24 26 28 30 32 34 36 37 38 39 40 41 42 42 41 41 41 41 42 42 42 42 42 43 43 45
8 6 4 8 12 12 10 10 10 8 7 6 10 20 21 22 23 24 25 28 29 31 32 34 36 38 39 41 41 42 43 42 42 42 41 41 42 42 42 42 42 43 44 46
8 6 4 7 10 9 9 10 10 9 9 8 9 21 23 23 23 25 27 28 30 31 33 35 37 39 41 42 43 43 44 43 43 43 42 42 42 42 42 43 43 44 45 46
8 7 6 10 11 6 10 12 11 10 10 9 10 20 25 27 26 27 29 30 31 33 35 37 39 41 42 43 43 44 44 44 44 43 43 42 42 42 43 43 44 45 46 47
9 8 6 8 10 10 12 14 14 13 11 13 15 20 25 27 27 28 29 31 32 34 37 39 41 43 44 44 45 45 45 44 44 44 43 43 43 43 43 44 45 46 47 48
9 8 8 9 10 12 13 14 15 15 15 16 18 21 25 26 27 29 30 32 34 36 39 41 43 44 45 45 45 45 45 45 44 44 43 43 43 44 44 44 45 46 47 47
11 10 10 9 10 13 13 15 17 18 18 18 20 23 26 27 29 29 30 33 35 37 40 42 44 45 45 45 46 46 46 45 44 44 43 43 43 44 44 45 46 46 46 46
13 12 10 8 8 11 14 16 19 20 20 22 24 25 27 28 29 29 30 33 35 38 40 42 44 46 46 46 46 47 46 45 44 44 43 44 43 43 44 45 45 45 45 44
12 12 12 10 8 10 14 18 21 22 22 23 24 26 28 29 31 31 31 34 36 39 42 44 45 46 47 47 47 47 46 45 44 44 43 44 43 44 44 45 44 44 43 42
16 14 14 13 10 11 16 22 21 22 24 22 23 25 26 28 32 34 34 37 39 42 43 44 46 47 47 47 47 47 46 45 44 43 43 43 43 44 44 44 43 42 41 40
19 19 17 15 14 13 17 21 21 24 27 24 25 26 27 29 30 34 36 38 40 42 43 44 45 47 47 47 47 47 46 45 44 43 43 43 44 44 43 43 42 40 39 39
23 21 19 19 19 18 24 23 24 26 27 27 28 28 29 30 31 33 35 38 41 43 43 44 45 47 48 48 47 47 46 44 43 43 43 43 44 44 42 41 40 39 38 37
19 19 20 21 20 23 27 27 27 26 26 27 27 28 28 29 31 34 37 39 42 43 43 44 45 47 48 48 47 46 45 44 43 43 43 43 43 43 41 40 39 37 36 35
19 20 21 21 23 27 28 28 28 27 26 26 27 27 28 30 32 35 38 40 42 43 43 43 45 46 48 48 48 47 45 44 42 42 42 42 42 41 40 39 37 35 34 32
21 26 25 23 23 26 27 28 28 27 26 26 27 27 29 31 34 36 38 40 42 42 42 43 44 46 47 48 48 47 45 43 42 41 41 41 41 40 39 38 36 35 33 31
22 25 27 26 26 26 26 27 27 27 27 27 27 28 30 33 35 37 39 40 41 41 42 43 44 46 47 48 48 47 45 43 41 40 40 40 40 40 38 37 36 35 32 31
24 25 26 26 27 27 27 27 27 27 27 27 28 30 33 35 37 38 40 40 41 41 42 43 44 45 47 48 47 46 45 43 41 40 39 39 39 39 38 37 35 34 32 30

GEFSCGP_500_meanwind_054.txt.gz
Wind_Speed
5 5 4 4 4 5 7 9 9 10 12 13 16 20 20 18 16 15 15 15 14 15 15 17 18 21 23 25 27 29 30 31 33 34 35 36 37 38 39 39 39 39 39 39
4 3 2 1 3 6 9 9 8 8 9 11 13 15 17 15 13 11 10 10 10 11 12 15 17 19 21 23 25 27 28 30 32 34 35 36 37 37 38 38 38 38 38 38
1 1 1 2 4 5 7 7 8 10 11 13 16 16 16 13 10 9 6 7 8 10 12 14 16 18 20 22 24 26 28 30 32 33 35 36 36 37 38 38 37 37 37 37
6 3 1 2 3 4 7 8 10 12 14 16 18 20 18 13 9 5 3 4 6 9 11 13 15 17 19 21 23 25 27 29 31 32 34 35 35 36 37 37 37 37 37 37
9 5 3 3 4 5 7 8 9 11 14 16 17 17 11 7 2 1 2 4 7 9 11 13 16 18 20 22 23 26 28 30 31 32 33 34 35 36 36 37 37 37 38 37
8 6 3 5 7 7 7 9 9 10 12 13 13 12 9 7 5 5 5 7 9 11 13 16 18 20 22 24 26 28 29 31 32 32 33 34 35 36 37 37 38 37 38 38
7 4 4 5 7 7 8 9 9 9 10 11 11 12 12 10 7 7 8 10 13 15 17 19 21 24 26 28 30 32 33 34 34 35 35 36 37 37 38 38 38 38 39 39
6 4 4 4 6 6 7 8 9 9 10 10 9 11 12 10 9 10 12 14 16 19 21 23 26 28 30 32 35 36 37 38 38 38 38 38 38 39 39 39 39 39 39 39
6 5 5 4 4 6 7 8 9 9 10 9 9 10 12 11 11 13 15 18 20 23 25 27 29 31 33 36 37 39 39 39 39 39 39 39 39 39 39 39 39 39 39 40
7 6 6 7 6 8 9 10 9 9 9 9 10 12 14 14 14 16 19 21 24 26 27 29 31 34 36 38 39 40 41 41 41 40 40 40 40 40 40 40 40 40 39 40
6 6 6 7 7 8 10 11 10 10 11 12 14 15 15 16 17 19 22 24 27 28 29 30 33 35 37 39 40 41 41 41 41 41 41 41 40 40 40 40 40 39 39 39
6 7 7 7 6 7 8 11 11 11 12 14 17 18 17 19 20 22 24 26 27 28 29 31 34 36 38 40 40 41 41 41 41 41 41 41 41 41 41 41 40 39 39 40
7 8 8 8 7 6 8 10 11 13 14 16 19 19 19 21 22 24 25 26 27 28 30 32 35 38 39 40 40 41 41 41 41 42 42 42 42 41 41 40 40 40 40 39
8 8 8 9 9 9 9 10 12 14 15 17 19 19 20 22 23 24 25 26 28 30 31 34 37 39 39 40 40 40 41 42 42 43 43 43 42 42 41 40 40 40 40 39
6 8 8 9 10 12 11 11 13 15 16 18 19 20 21 23 23 24 25 27 29 31 33 35 38 39 39 40 40 41 42 43 43 44 44 44 43 42 41 40 40 40 40 40
6 6 6 8 10 11 11 12 14 16 17 18 19 21 23 23 24 25 26 28 30 31 34 36 38 39 40 40 41 42 43 44 45 45 45 45 44 42 41 40 40 40 40 39
8 7 7 9 10 10 11 12 14 15 17 19 21 22 24 24 25 25 26 28 30 32 34 37 38 39 40 41 42 43 44 45 46 46 46 46 44 42 41 40 40 40 39 38
7 7 8 10 10 11 11 13 14 16 19 20 21 23 24 25 25 25 26 28 30 32 35 37 39 40 41 42 43 44 45 46 46 47 47 46 45 43 41 40 40 39 38 37
8 8 10 12 12 11 13 13 15 17 19 21 22 24 26 26 26 25 27 29 31 34 36 38 39 40 41 42 43 45 46 46 47 47 47 46 44 42 41 40 39 39 38 37
8 10 12 14 13 13 11 13 16 18 20 21 23 24 25 26 27 27 29 30 32 35 37 38 40 41 42 42 44 45 46 46 47 47 47 46 44 43 41 40 39 39 38 37
13 15 15 15 16 17 17 18 19 21 22 23 24 25 25 26 27 28 29 31 33 35 37 39 40 42 42 43 44 45 46 46 47 47 47 46 44 43 42 41 40 39 38 37
18 19 20 21 21 22 22 23 23 24 24 24 24 25 26 26 27 28 30 32 34 36 38 39 41 42 43 43 44 45 46 46 46 46 46 46 44 43 42 41 40 39 38 37
21 22 24 23 24 24 24 25 25 26 25 25 25 25 26 27 28 29 31 33 35 37 38 40 41 42 43 44 45 45 46 46 46 46 46 45 44 43 42 41 40 38 36 36
21 24 26 26 26 26 26 25 25 25 25 24 25 26 26 27 29 31 33 35 37 38 40 41 42 43 43 44 45 45 46 46 45 45 45 45 44 42 42 41 38 36 36 35
20 24 26 27 26 25 24 25 25 25 25 26 26 27 28 30 31 33 35 37 39 40 41 42 43 43 44 44 45 45 46 45 45 45 45 44 43 42 41 40 38 36 36 36
21 25 27 27 26 26 25 26 27 27 27 28 28 29 31 32 34 35 37 38 40 41 42 43 43 44 44 45 45 45 45 46 45 45 44 43 42 41 40 38 37 36 36 36

GEFSCGP_500_meanwind_060.txt.gz
Wind_Speed
8 6 6 6 5 6 8 9 10 11 12 12 14 15 17 18 19 19 20 18 18 17 18 17 16 16 17 18 19 21 22 23 25 26 27 28 29 30 31 32 32 33 33 34
6 5 6 4 5 5 6 7 7 8 10 11 11 12 14 15 16 15 15 15 15 15 15 15 16 16 17 18 19 21 23 24 26 27 29 30 31 32 33 33 33 33 33 33
6 5 5 5 6 5 5 6 6 6 5 6 8 8 9 10 11 12 12 11 11 12 13 14 14 15 17 18 20 22 24 26 27 29 30 31 32 33 33 33 33 33 32 32
6 6 5 5 5 5 6 6 5 5 5 5 4 5 6 5 6 8 8 8 8 9 10 12 14 16 17 19 21 23 25 27 28 30 30 31 31 32 32 33 33 33 33 32
6 6 5 5 5 7 7 6 5 6 5 4 5 6 5 4 2 3 5 6 7 8 10 12 14 16 18 20 22 23 25 26 27 28 29 29 30 30 30 31 31 32 32 32
7 7 5 6 6 7 7 6 5 5 3 2 4 6 6 4 2 2 2 3 6 9 12 14 15 17 18 20 22 23 24 25 26 27 28 28 28 29 29 30 30 31 32 33
8 8 7 6 6 6 6 6 5 4 3 2 3 5 6 3 2 0 3 5 8 10 12 15 16 17 18 20 21 23 24 25 26 27 28 28 28 29 29 30 30 31 32 33
8 9 8 6 5 6 6 7 6 5 4 3 3 4 5 4 3 4 6 8 10 12 13 14 15 16 18 20 22 24 25 26 27 28 29 29 29 29 30 31 31 32 33 33
9 9 9 7 6 6 7 7 7 7 6 4 3 3 5 6 7 8 9 10 11 12 13 14 15 17 19 21 24 25 27 28 29 29 30 30 30 31 32 33 34 34 34 35
9 8 8 7 7 7 8 8 8 9 8 6 3 4 5 6 8 10 11 12 12 13 13 14 16 18 21 24 26 27 29 30 31 31 31 32 33 33 34 35 36 36 36 36
9 8 8 8 8 8 8 9 9 10 9 8 5 6 6 8 9 11 13 13 14 14 14 16 18 21 23 26 28 29 30 32 32 33 33 34 35 36 37 37 38 38 38 38
9 9 9 9 9 9 10 10 11 10 9 9 8 8 8 10 11 13 14 15 15 16 17 19 21 23 25 27 29 31 32 33 34 35 35 36 37 38 38 39 40 40 39 39
10 10 10 10 11 11 11 12 12 12 10 10 10 10 11 12 13 15 16 17 17 18 19 21 23 25 27 29 31 32 34 35 36 37 37 38 39 39 40 41 41 41 40 40
11 11 11 11 12 13 13 14 14 13 12 11 11 12 13 14 16 17 18 19 19 20 21 23 24 26 28 30 32 34 35 36 37 38 39 39 40 41 41 42 42 42 41 41
11 11 12 12 12 12 13 13 14 13 12 12 12 13 15 17 18 19 20 21 21 21 23 24 26 27 29 31 33 35 37 38 39 39 40 41 42 42 43 43 43 43 42 41
12 12 12 12 12 12 12 12 13 12 13 13 14 16 18 19 20 21 21 22 22 22 24 25 26 28 31 33 35 37 38 39 40 40 41 42 43 43 44 44 44 44 43 42
12 12 12 12 13 13 12 12 12 12 13 15 16 18 19 21 21 22 22 22 22 23 24 26 28 30 32 34 37 38 39 40 41 41 42 43 43 44 44 45 45 44 44 43
13 13 13 12 13 13 11 12 11 12 13 15 17 19 21 22 22 22 22 23 23 24 26 27 29 31 34 36 38 39 40 41 41 42 43 43 44 44 45 45 45 45 44 43
14 14 13 13 12 11 11 12 12 13 14 16 18 20 21 22 22 22 23 23 24 26 27 28 30 33 35 37 38 40 41 41 42 43 44 44 44 45 46 46 46 45 44 43
14 13 14 14 14 11 10 12 13 14 14 17 19 21 22 22 23 23 24 25 26 27 28 30 32 34 36 38 39 40 41 42 43 43 44 45 45 46 46 47 46 45 44 43
16 16 16 16 16 13 14 14 14 16 17 18 20 21 22 23 24 24 25 26 27 28 30 31 34 36 37 39 40 40 42 43 43 44 45 46 47 47 47 47 46 45 44 43
18 18 19 19 18 17 17 18 18 19 20 21 22 23 24 25 25 26 27 28 29 30 32 33 35 37 38 39 40 41 42 44 45 46 46 47 47 48 47 46 46 45 43 42
21 22 22 21 20 20 21 21 22 22 23 24 25 26 26 26 27 27 28 29 30 32 33 35 37 38 40 40 41 42 43 45 46 47 48 48 48 48 47 46 45 44 43 41
23 24 25 25 24 24 24 24 25 26 26 26 27 28 28 28 29 29 30 31 32 34 35 37 38 40 41 42 42 44 45 46 47 49 49 49 49 48 47 46 45 43 41 40
23 26 28 28 27 28 26 26 27 27 28 28 29 29 30 30 31 31 32 33 34 35 37 38 39 41 42 43 44 46 47 48 49 50 50 50 48 47 46 45 44 42 40 39
25 29 30 30 29 30 28 28 29 29 29 29 30 31 31 32 32 33 34 34 35 37 38 40 41 42 43 44 46 48 49 50 51 51 50 49 47 46 44 44 42 41 39 39

GEFSCGP_500_meanwind_066.txt.gz
Wind_Speed
12 11 10 9 9 8 8 7 8 9 9 10 11 12 12 13 15 18 19 19 16 15 13 12 12 11 11 11 11 12 12 13 15 16 18 20 21 22 23 23 24 24 24 24
11 10 9 9 9 8 8 7 8 9 9 9 9 10 11 11 13 15 15 15 13 12 11 10 10 9 10 9 10 11 12 14 16 18 20 21 23 24 24 24 24 24 24 24
9 9 9 9 8 8 8 8 8 9 8 7 7 8 10 10 10 10 10 9 9 9 9 8 8 9 9 10 11 12 15 17 19 21 22 23 24 25 25 25 24 24 24 24
8 9 8 8 7 8 8 8 8 8 7 7 7 8 10 9 7 6 5 6 6 6 6 6 7 8 9 10 12 14 16 19 20 22 23 23 24 24 24 24 24 23 23 23
8 8 8 8 8 8 8 8 8 7 6 7 8 8 9 8 7 4 3 2 3 3 4 6 8 9 10 12 14 16 18 20 21 22 22 22 23 23 23 23 23 23 22 22
8 8 8 8 8 8 7 7 7 7 7 7 7 7 8 8 6 3 2 2 3 4 6 7 9 11 12 14 15 17 19 20 21 21 21 21 22 22 22 22 22 22 23 23
10 10 9 9 8 7 6 5 7 7 7 8 9 7 7 7 6 4 4 4 6 7 9 10 11 12 14 15 16 18 19 20 20 20 21 21 21 21 22 22 22 23 24 25
9 10 12 10 9 8 6 4 3 4 5 8 10 9 9 8 7 6 6 7 8 10 11 12 13 13 14 16 17 18 19 19 20 20 21 21 22 22 23 23 24 25 25 26
10 11 12 10 9 8 7 6 5 5 6 6 8 10 10 10 9 8 8 9 10 12 13 14 14 15 16 17 18 18 19 19 20 21 22 23 23 24 24 25 25 26 27 28
10 10 11 10 9 8 8 8 7 4 5 5 9 9 9 10 10 10 11 11 12 13 14 14 15 16 17 17 18 19 19 20 21 22 23 24 24 25 26 26 27 28 29 30
10 10 10 10 9 10 9 9 8 7 6 4 6 9 11 11 11 11 12 12 13 13 14 15 16 16 17 18 18 19 19 21 22 23 24 25 26 27 28 28 29 29 30 31
10 10 9 11 11 11 10 10 9 8 9 8 7 11 14 13 12 12 12 13 13 14 14 15 16 17 17 18 18 19 20 22 23 25 26 27 28 29 29 30 31 31 32 33
12 10 8 9 11 12 12 12 11 11 11 11 9 11 16 14 12 12 13 14 14 14 15 15 16 17 18 18 19 20 21 23 25 26 27 28 30 31 31 32 33 34 35 36
13 12 10 10 11 13 13 13 13 13 12 12 13 13 15 15 14 13 13 14 15 15 15 16 16 17 18 19 20 21 23 25 26 28 29 30 31 32 33 34 35 37 38 38
15 14 13 13 14 13 13 13 14 14 13 13 14 14 15 16 15 15 15 15 16 16 16 16 17 18 19 20 21 23 24 26 28 29 30 31 33 34 35 36 38 39 40 41
16 14 14 14 14 14 12 12 14 14 14 14 15 15 16 16 16 16 16 16 16 16 17 17 18 19 20 21 23 24 26 27 29 30 31 33 34 36 37 39 40 41 42 42
16 15 14 13 14 15 13 13 14 14 14 14 14 16 17 17 17 17 17 17 17 17 18 18 19 20 22 23 24 26 27 29 30 32 33 34 36 38 40 41 42 43 43 44
15 15 14 13 14 15 12 15 14 13 13 14 15 16 17 18 18 18 18 18 18 18 19 20 21 22 23 24 26 27 28 30 31 33 34 36 38 40 41 43 44 44 44 44
16 16 16 15 14 14 14 16 14 13 13 16 16 18 19 19 19 19 19 19 19 19 20 21 22 23 25 26 27 28 30 31 33 34 36 37 39 41 43 44 45 45 45 44
18 17 17 17 15 13 15 18 16 15 14 18 19 20 21 20 20 20 20 20 20 21 21 22 23 24 26 27 29 30 32 33 34 35 37 38 40 43 44 45 46 46 45 44
19 20 19 19 18 17 21 18 17 16 19 21 21 22 22 22 21 21 22 22 22 23 23 24 25 26 28 29 30 32 33 34 35 36 38 40 42 44 46 47 47 46 45 43
21 21 22 22 20 21 24 21 21 22 22 23 23 24 23 23 23 23 23 24 25 26 26 27 28 29 31 32 33 34 35 36 37 37 39 42 44 46 48 48 47 46 44 43
23 24 25 25 25 26 25 25 24 24 23 24 25 25 25 25 26 26 26 26 27 28 29 30 32 33 34 35 35 36 37 38 39 40 42 43 46 47 48 48 47 46 45 42
26 26 27 26 26 27 27 26 26 25 25 25 26 26 27 27 28 29 29 29 30 30 32 33 34 35 36 37 38 38 40 41 42 44 44 45 47 48 48 48 47 46 44 41
29 28 28 28 28 28 29 28 28 28 28 28 29 29 30 30 31 31 32 32 32 33 34 35 37 39 39 40 41 42 42 43 45 46 47 47 48 48 48 48 47 45 43 41
28 28 28 30 30 30 30 30 30 30 31 31 31 32 32 33 33 33 33 34 35 36 37 38 40 41 42 43 44 45 45 46 47 48 48 49 49 49 49 48 47 45 42 40

GEFSCGP_500_meanwind_072.txt.gz
Wind_Speed
10 11 11 11 11 12 11 11 12 11 14 14 13 15 13 10 6 8 11 13 14 13 12 13 12 13 11 11 11 11 11 12 12 13 15 16 16 17 18 18 19 20 20 20
12 14 13 12 11 10 11 12 13 13 13 12 11 12 10 9 5 4 9 11 10 10 10 11 10 10 10 11 10 10 11 12 13 14 15 16 17 17 18 18 18 19 20 20
10 11 14 12 10 12 11 12 12 12 12 11 11 10 11 10 4 2 4 5 4 6 8 8 7 7 8 8 9 10 11 12 12 13 15 16 17 17 18 18 18 19 19 19
9 10 13 12 11 13 13 12 10 9 10 11 11 11 10 11 8 4 2 2 2 2 4 5 6 7 7 8 9 9 10 11 12 14 16 17 17 18 19 19 19 19 19 20
9 12 14 13 13 14 12 9 8 8 9 10 11 12 10 11 10 6 4 2 0 1 2 3 4 5 6 6 7 8 10 11 13 15 16 17 19 19 20 20 21 21 21 21
9 11 13 12 12 12 10 9 10 11 11 8 9 11 12 12 12 8 6 3 1 1 2 2 3 4 6 7 8 9 11 13 14 16 17 18 20 21 21 22 22 23 23 23
15 16 16 12 10 11 11 11 15 16 15 10 9 8 11 13 11 9 6 4 3 3 4 4 5 6 8 9 10 10 12 14 15 17 18 19 20 21 22 23 24 24 24 24
16 19 17 12 11 13 11 10 11 14 15 12 6 7 12 12 10 9 7 6 5 5 6 7 8 8 9 10 11 12 14 15 16 17 19 20 21 22 23 23 24 24 25 25
14 16 16 13 13 14 11 9 8 10 10 10 7 9 10 10 10 10 9 8 8 9 9 10 10 10 10 12 13 14 14 16 17 18 19 21 22 23 24 24 25 25 25 26
15 15 12 13 13 12 10 9 9 8 9 8 10 8 9 12 15 14 13 12 11 11 11 11 12 12 13 13 14 14 15 16 18 19 20 21 22 23 24 24 25 26 26 27
14 15 12 13 13 12 10 9 9 9 9 9 14 13 11 15 18 18 16 14 14 13 13 13 13 14 14 14 15 15 16 18 19 20 21 22 23 24 24 25 26 27 27 29
17 15 14 15 16 14 11 11 11 11 10 9 11 12 13 15 19 20 19 18 16 16 16 16 16 16 16 16 16 16 17 18 20 21 22 23 23 24 25 26 27 28 29 30
17 16 14 14 18 18 12 10 8 9 10 10 12 15 15 15 16 20 20 19 18 17 17 18 17 17 17 17 17 17 18 19 20 21 22 24 25 26 27 28 29 30 31 32
16 16 15 16 17 15 8 5 7 9 11 13 14 16 15 16 17 20 20 19 19 19 18 18 18 18 18 18 18 19 19 20 21 22 24 25 26 27 28 29 30 31 32 33
17 15 16 16 15 14 12 11 11 12 14 15 16 17 18 19 21 23 23 22 21 20 20 19 19 19 19 19 19 20 21 22 23 24 25 26 27 28 29 31 32 33 34 35
18 17 17 16 13 13 13 14 14 15 15 14 15 17 20 21 22 23 22 23 23 22 21 20 20 20 20 20 20 21 22 23 24 26 27 28 29 30 31 33 34 35 36 38
21 20 18 16 14 14 14 14 15 16 16 16 17 18 20 22 22 21 20 21 22 21 21 21 21 20 21 21 22 22 23 25 26 28 29 30 31 32 33 35 35 36 38 39
21 21 19 16 15 14 11 13 15 15 15 16 16 18 22 22 21 21 21 20 20 20 21 22 22 22 22 23 24 24 25 26 27 29 30 31 33 34 36 37 38 39 40 42
22 21 19 17 15 14 15 20 19 18 16 15 16 18 19 20 20 21 21 21 21 22 22 23 23 23 23 24 25 26 26 27 29 30 32 33 35 36 38 39 40 41 43 44
22 20 19 17 17 16 21 24 21 18 19 18 17 19 21 20 19 23 24 25 25 24 24 24 25 25 25 26 26 27 28 29 31 33 34 35 37 38 40 41 42 43 44 45
24 21 19 17 16 18 24 24 23 21 19 17 19 22 23 23 22 25 26 27 27 26 26 27 27 27 27 28 28 28 30 31 33 35 36 37 40 41 42 43 44 45 46 46
21 20 21 21 20 23 26 26 26 23 21 20 23 25 28 28 27 28 29 28 28 28 28 28 29 30 29 30 30 31 32 34 35 37 38 40 42 44 44 44 45 47 47 47
22 22 22 26 27 27 28 29 26 23 24 27 29 29 29 29 30 30 30 30 29 29 30 30 31 32 32 32 33 34 35 37 38 40 41 43 44 46 46 46 47 47 48 47
22 23 24 27 29 30 29 29 28 28 29 29 30 31 31 31 31 31 32 32 31 32 33 33 34 34 35 35 36 37 38 40 41 43 44 45 46 48 48 49 49 49 50 49
28 27 27 29 30 32 32 31 31 31 31 31 32 32 32 32 32 32 33 34 34 34 35 36 36 37 37 38 39 40 41 42 44 45 46 47 49 50 50 49 50 50 49 49
29 30 30 32 32 34 34 33 32 33 33 33 33 33 33 33 34 34 35 35 36 37 37 38 39 39 41 42 43 43 44 46 47 48 49 51 52 52 51 51 51 51 50 48